STARLINK-1185 (45087 NORAD) Tracking and Keplerian Element Data

This shows tracking and keplerian element data for the satellite.

Feedback or suggestion? Click here.




ElementValue
Catalog45087
NameSTARLINK-1185
Epoch Orbit177
Epoch Day52.91667824
Epoch Year2020
RAAN119.5101
Inclination52.9967
Eccentricity0.0001178
Argument of Perigee47.792
Mean Anonmoly97.5073
Mean Motion15.7312447
Decay Rate0.00267643
L11 45087U 20006AV 20052.91667824 .00267643 00000-0 18568-2 0 9992
L22 45087 52.9967 119.5101 0001178 47.7920 97.5073 15.73124470 1778

Live tracking and technical data element details for STARLINK-1185 (NORAD 45087). STARLINK-1185 can be tracked NOW for your location showing map with azimuth and elevation plus other details from your city location.

Track the satellite on the map from your city or location and see movement details for azimuth, elevation, latitude, longitude, range, height, and movement on the map or in text.







IsCatalogInMostPopularTable: catalog: 45087, numindb: 8
Update: records affected: 1



GetName: 45087 STARLINK-1185

Hit Count: updated at: Wed, 26 Feb 2020 16:06:23 GMT